SPOT 6

Last updated on Mon Jun 22 2026 00:02:51 GMT+0000 (Coordinated Universal Time)

1 38755U 12047A 26172.51970411 .00000516 00000+0 12081-3 0 9994 2 38755 98.2113 239.7786 0001546 92.3922 267.7455 14.58566130733681
UTC large
Height (km)
Speed (km/s)
/
Latitude / Longitude
Inclination (degrees)
Orbital Period (minutes)
Azimuth
Elevation
Range (km)
Doppler Factor

Next 0 passes for location: London (51.5072 / 0.1276)

No passes found over London.
SPOT 6